Vorticity
nan nan nan nan nan nan nan nan nan nan nan nan nan nan nan nan nan nan nan nan nan nan nan nan nan nan nan nan nan nan nan nan nan nan nan nan nan nan nan nan nan nan nan nan nan nan nan nan nan nan nan nan nan nan nan nan nan nan nan nan nan nan nan nan nan nan nan nan nan nan nan nan nan nan nan nan nan nan nan nan nan nan nan nan nan nan
nan 7 8 9 7 6 8 10 10 9 8 7 7 6 7 9 9 10 13 13 13 12 10 11 11 11 11 12 10 8 8 8 8 9 9 9 10 10 10 10 10 10 10 10 10 10 10 10 10 11 11 12 12 12 12 12 13 13 13 13 13 13 13 13 13 13 12 12 12 12 12 12 12 12 12 12 12 11 11 11 11 11 11 10 9 nan
nan 9 8 10 9 8 8 11 12 11 9 7 7 6 6 8 9 9 10 12 13 13 11 10 10 11 11 11 10 11 9 9 9 9 9 9 10 10 10 10 10 10 10 10 10 10 10 11 11 11 12 12 12 12 13 13 13 14 14 14 14 14 14 14 14 14 14 13 13 13 13 13 13 13 14 14 14 13 13 12 12 13 13 12 11 nan
nan 9 9 10 11 12 10 10 10 10 10 9 9 10 10 11 11 11 10 10 11 11 11 11 10 11 12 13 13 11 8 8 8 9 9 9 9 9 9 9 9 9 9 10 10 10 11 11 12 12 12 12 12 12 13 13 13 13 13 13 13 13 13 13 13 13 14 14 14 14 13 13 12 13 13 14 14 14 14 13 13 13 13 13 12 nan
nan 9 10 10 11 12 12 11 10 10 10 11 12 13 13 12 12 11 11 11 10 10 12 13 12 11 10 10 9 8 7 8 8 8 9 9 9 9 9 10 10 10 10 11 11 11 12 12 12 12 12 12 12 12 12 12 12 11 11 11 11 11 10 10 11 11 12 12 13 13 12 12 11 11 11 12 12 12 13 13 12 12 12 12 11 nan
nan 9 10 10 9 10 11 11 10 10 10 12 13 13 12 12 11 10 10 11 11 12 12 12 12 11 10 7 5 7 10 11 11 11 11 11 10 11 11 11 11 11 11 11 11 11 12 11 11 11 11 11 11 11 11 11 11 10 10 10 10 10 9 9 9 9 10 10 11 11 11 10 10 10 10 11 11 11 11 11 10 10 10 9 9 nan
nan 9 9 9 9 9 9 10 10 10 9 9 11 12 12 12 11 10 9 9 10 11 11 11 12 12 12 10 10 13 17 18 20 20 18 17 16 16 14 13 12 12 11 11 11 11 11 11 11 11 11 11 10 11 11 11 10 10 10 10 11 11 11 11 10 10 10 10 10 10 10 10 9 10 10 10 9 9 9 9 9 9 8 8 8 nan
nan 8 8 7 7 8 8 9 9 9 8 8 8 9 10 10 10 10 10 10 10 11 11 12 12 12 13 15 17 19 18 20 22 23 22 24 24 22 18 15 14 12 12 11 11 10 10 10 10 10 10 10 10 11 11 11 11 11 11 11 12 12 12 12 12 12 12 11 11 10 10 10 10 10 9 9 9 8 8 8 8 8 8 8 9 nan
nan 7 8 8 7 8 9 10 10 10 9 8 7 6 7 6 7 8 9 10 11 12 11 9 10 11 12 15 16 17 15 13 11 10 11 15 15 13 13 13 14 14 11 11 10 10 10 10 10 10 10 10 11 11 11 11 11 11 11 11 12 12 12 13 13 13 13 12 12 11 11 11 11 10 10 9 8 8 8 8 8 8 9 9 9 nan
nan 8 9 11 11 10 9 10 12 13 12 10 10 9 8 7 7 7 7 10 11 11 9 8 8 10 11 13 13 14 14 13 10 6 5 3 1 2 6 8 10 11 10 11 10 10 11 10 10 11 11 11 11 11 12 12 12 12 11 11 12 11 11 11 12 12 12 12 12 12 12 12 12 11 11 10 9 9 9 9 9 9 9 9 9 nan
nan 12 13 13 13 13 12 11 12 14 13 12 12 12 11 11 10 9 9 10 9 8 8 9 10 9 10 10 11 11 13 15 17 18 17 14 13 13 14 15 14 13 14 15 14 14 13 12 12 12 12 12 12 12 12 12 12 11 11 11 11 10 10 10 10 11 11 11 11 11 11 11 12 12 12 11 11 11 10 10 9 9 9 9 8 nan
nan 14 14 13 12 12 12 11 11 12 11 11 11 11 13 14 13 12 11 10 8 6 7 9 10 10 9 8 9 11 12 12 14 17 21 23 25 26 26 24 23 23 24 23 23 22 18 16 14 14 13 13 12 12 11 11 10 10 10 9 9 9 9 9 9 10 10 10 10 10 11 11 11 11 12 12 12 11 11 11 10 10 9 9 8 nan
nan 11 11 11 10 10 10 9 10 10 9 9 9 9 10 12 12 12 12 11 9 7 8 8 8 10 11 9 9 10 10 11 11 12 13 16 19 20 21 20 20 22 23 24 24 22 19 19 19 18 15 13 12 12 12 10 9 8 8 8 8 8 9 9 9 9 9 9 10 10 10 11 11 11 11 11 11 11 11 10 10 10 9 9 8 nan
nan 9 8 8 9 10 9 9 8 7 8 9 9 10 9 9 9 10 11 10 10 10 10 8 8 9 11 12 12 11 10 11 11 11 10 11 12 13 12 11 12 13 14 14 15 15 16 18 20 20 19 17 15 15 13 10 9 8 8 8 8 8 8 9 9 9 9 9 9 10 10 10 10 11 11 11 10 10 10 10 10 9 9 8 8 nan
nan 9 8 9 9 9 9 10 9 9 10 10 10 10 10 9 10 10 9 9 10 11 12 12 12 11 11 13 14 13 11 9 10 10 10 11 13 13 12 10 10 10 10 10 10 12 16 16 15 16 19 16 12 9 6 6 7 7 8 8 8 8 9 9 9 10 10 10 10 10 10 10 10 10 10 10 10 10 10 9 9 9 8 7 7 nan
nan 10 10 10 9 9 8 9 10 11 12 13 12 11 11 11 11 11 10 10 11 12 12 13 14 14 14 15 14 14 13 11 11 10 11 12 14 16 14 9 9 9 9 10 10 12 16 15 13 11 13 10 6 4 3 3 5 7 8 8 9 9 10 10 10 10 10 10 10 10 10 10 10 10 10 10 10 10 10 9 9 9 8 7 7 nan
nan 11 11 10 9 9 8 10 12 13 13 13 13 12 12 11 10 9 9 10 10 11 11 11 12 12 12 13 15 16 15 11 10 10 11 10 12 16 14 9 8 8 9 9 10 11 11 12 11 11 10 6 5 5 6 5 6 7 8 8 9 9 10 10 10 10 10 10 10 10 10 10 10 10 10 10 10 10 10 10 9 9 8 8 8 nan
nan 10 10 10 10 10 10 12 14 15 14 13 12 11 11 10 9 8 8 8 8 8 8 9 10 9 7 7 11 15 14 8 6 7 9 9 10 14 13 10 8 8 8 9 9 10 10 10 8 6 3 3 4 5 5 6 6 7 8 8 9 9 9 10 10 10 10 10 10 10 10 10 10 10 10 11 10 10 10 10 10 9 9 9 9 nan
nan 9 9 9 9 10 12 13 14 14 12 10 9 8 8 9 9 9 9 9 9 9 8 7 7 7 7 6 6 8 9 7 5 7 8 9 9 11 11 9 8 8 8 9 10 10 11 11 10 7 2 4 5 5 6 6 7 7 8 8 9 9 9 10 10 10 10 10 10 10 10 11 11 11 11 11 11 10 10 10 10 10 9 9 9 nan
nan 7 8 9 10 12 14 15 13 10 6 5 6 7 7 8 9 10 11 12 12 12 12 11 9 8 8 8 8 8 7 8 8 10 10 10 9 10 10 9 8 8 8 9 10 11 11 11 13 15 13 10 9 7 7 7 8 8 8 9 9 9 10 10 10 10 10 10 10 11 11 11 11 11 11 11 11 11 10 10 10 10 10 9 9 nan
nan 9 9 9 10 11 13 12 9 5 1 3 6 8 10 11 11 12 13 13 12 12 12 12 11 9 8 8 8 8 8 10 11 11 11 12 11 10 10 10 9 9 9 11 12 13 12 11 12 15 15 11 9 8 7 7 7 8 8 9 9 10 10 10 10 10 10 10 10 11 11 11 11 11 11 11 11 11 10 10 10 9 9 9 9 nan
nan 9 8 7 7 7 8 8 7 5 5 6 7 9 13 12 12 12 11 11 10 9 9 8 8 8 7 8 8 9 10 12 11 10 9 10 10 10 10 10 9 9 10 11 13 14 14 12 11 12 12 9 7 7 7 7 7 7 8 9 10 10 10 10 10 10 10 10 10 10 11 11 11 11 11 11 11 10 10 10 10 10 10 10 9 nan
nan 7 7 8 9 9 10 10 11 12 13 11 11 10 10 9 9 8 8 8 7 8 9 9 9 9 10 11 12 13 14 13 11 10 9 9 10 10 10 10 9 8 9 10 12 14 13 12 12 13 16 14 10 8 7 7 7 7 8 9 10 10 10 10 10 10 10 10 10 10 11 11 11 11 11 11 10 10 10 10 10 10 10 10 10 nan
nan 8 9 10 8 7 7 8 9 10 12 12 12 11 8 7 6 6 7 7 8 10 10 10 11 12 13 14 15 17 17 15 12 11 10 11 11 11 10 10 9 9 10 11 13 14 13 12 12 14 18 20 15 11 9 8 7 8 9 9 10 10 11 10 10 10 10 10 10 11 11 11 11 11 11 11 10 10 10 10 10 10 10 10 10 nan
nan 4 3 -0 -4 -6 -6 -4 -2 -1 -0 4 8 10 9 8 7 8 9 10 11 11 10 10 11 12 13 15 16 16 17 16 13 10 9 11 12 12 11 11 11 11 11 12 13 12 12 11 12 13 16 21 19 14 10 9 8 8 8 10 10 11 11 11 11 11 11 11 11 11 11 11 11 11 11 11 10 10 10 9 9 10 10 10 11 nan
nan -9 -12 -13 -11 -6 0 4 4 -0 -2 3 6 7 8 10 11 11 10 11 11 10 10 10 11 11 11 12 12 12 14 15 14 11 8 8 9 11 12 11 11 11 10 11 11 11 10 10 11 12 13 18 20 19 13 10 9 9 9 10 10 11 11 11 11 11 11 11 11 12 12 12 12 12 11 11 10 10 10 10 10 10 10 12 14 nan
nan -5 -3 2 7 13 19 21 20 16 14 10 7 7 11 13 12 11 11 11 10 10 10 10 10 11 11 11 10 10 10 11 12 12 10 8 9 11 12 12 12 11 12 12 12 11 9 9 10 10 11 14 18 21 18 13 11 11 10 10 11 11 12 12 12 12 12 12 12 12 12 12 12 12 11 11 10 10 10 10 10 11 13 18 23 nan
nan 15 17 18 18 18 18 20 20 19 16 10 8 14 20 19 14 12 12 11 10 9 8 8 9 10 10 10 9 9 9 10 10 12 12 12 11 11 12 12 12 13 14 13 13 13 12 11 11 11 11 11 13 18 22 19 17 16 15 13 13 13 13 13 13 13 13 13 13 13 13 13 13 12 12 11 11 11 10 10 11 13 19 24 24 nan
nan 25 22 19 17 15 16 17 14 11 9 10 14 21 25 21 15 12 11 10 10 9 9 9 10 9 9 9 10 10 11 12 11 11 13 13 12 11 12 12 13 14 14 14 14 14 15 14 13 12 13 12 12 14 21 24 23 23 23 20 18 16 14 14 13 13 13 13 13 13 13 13 13 13 12 12 11 11 10 10 13 17 23 22 18 nan
nan 24 22 19 18 17 18 17 13 10 10 13 17 21 23 19 13 11 11 10 10 10 10 10 10 10 9 10 11 12 14 13 10 9 12 13 12 11 11 11 12 12 13 13 13 13 13 13 12 12 13 14 14 14 16 20 21 22 24 25 24 21 17 15 14 14 14 14 14 13 13 13 13 13 12 12 12 11 11 11 14 17 19 15 12 nan
nan 15 15 14 15 15 15 13 12 12 13 16 19 20 18 14 12 11 11 11 11 10 11 10 10 10 9 9 10 11 12 11 7 5 8 11 11 9 9 9 10 11 11 9 8 9 11 11 10 9 11 14 15 14 14 15 14 15 16 19 21 21 18 16 15 15 16 15 14 13 13 13 13 12 12 12 11 11 11 12 13 13 12 10 9 nan
nan 9 10 10 11 11 11 11 12 12 13 15 16 16 13 11 10 10 11 11 11 10 10 10 10 10 10 8 7 7 8 7 4 2 4 10 11 10 10 10 11 12 11 9 6 6 8 9 8 8 9 11 12 13 14 14 12 12 12 12 13 16 18 17 17 18 18 17 16 15 14 13 13 12 12 11 11 11 11 12 12 11 9 10 9 nan
nan 9 9 9 10 10 10 11 11 11 11 12 12 11 12 11 11 10 10 11 10 10 9 9 10 10 11 10 9 8 7 6 3 3 5 10 11 11 11 11 10 10 10 11 9 8 8 8 8 9 9 10 10 11 13 14 13 13 12 10 9 12 16 17 18 19 18 18 19 19 17 16 15 14 13 12 12 11 11 11 10 9 7 9 9 nan
nan 9 9 10 10 10 10 10 10 10 10 10 10 10 11 11 11 12 11 11 10 10 9 9 9 10 10 12 11 10 9 9 8 8 10 11 10 9 8 8 7 8 9 10 10 10 10 8 7 8 9 10 10 11 12 14 14 14 13 11 9 10 14 15 15 15 15 15 16 17 18 18 18 17 16 14 12 11 10 10 9 8 7 7 6 nan
nan 10 11 11 10 10 9 10 9 10 10 10 11 11 10 11 11 11 12 11 10 10 9 8 9 9 9 10 10 10 9 9 9 10 10 10 9 8 8 8 8 8 8 8 8 9 9 7 6 5 6 8 9 10 11 12 13 14 14 13 10 10 11 12 12 12 12 11 11 12 14 14 15 16 16 13 11 9 8 8 8 8 8 6 6 nan
nan 11 11 11 10 9 9 10 10 11 11 12 12 12 11 11 11 10 10 10 10 9 9 9 8 8 7 8 8 8 8 7 6 8 10 10 9 8 9 9 9 9 9 8 8 8 7 7 7 6 6 8 9 10 10 10 11 12 13 14 12 11 10 11 12 12 11 9 9 9 10 11 11 12 12 10 10 10 10 9 10 10 10 9 9 nan
nan 10 11 11 10 10 11 12 12 11 12 11 11 11 11 10 10 9 10 10 9 9 10 11 10 9 5 4 4 5 5 4 5 6 8 8 8 8 8 9 9 9 9 9 9 9 8 9 9 11 12 11 9 7 7 7 8 11 12 13 13 11 10 11 12 11 11 10 8 8 8 9 10 11 10 12 14 16 16 15 14 13 12 13 12 nan
nan 10 11 11 11 11 12 11 11 10 10 9 9 10 11 10 10 9 10 11 10 10 10 11 11 12 10 6 5 3 3 4 5 7 9 9 9 8 7 8 9 9 9 10 9 9 9 9 11 12 14 12 9 7 7 7 7 9 11 12 13 12 12 11 11 10 10 11 9 8 8 9 10 10 11 15 16 17 17 17 16 16 17 19 16 nan
nan 10 11 11 11 12 11 9 9 9 9 9 9 9 10 11 12 12 12 12 12 11 10 9 9 12 15 14 12 10 9 11 12 12 14 13 12 10 9 8 9 10 10 11 10 10 9 9 9 9 8 10 11 11 10 9 8 7 7 8 11 13 14 13 12 10 9 10 11 10 9 10 10 10 10 11 11 11 11 13 14 16 18 17 16 nan
nan 11 10 10 11 11 9 8 9 10 9 10 10 11 12 13 14 15 14 12 12 13 13 11 11 12 15 16 17 16 15 15 14 14 16 14 11 10 10 9 9 10 10 11 11 11 10 9 9 8 7 7 8 8 7 8 7 5 2 5 9 13 16 15 13 11 11 11 11 10 9 8 9 9 9 9 9 9 10 10 10 11 11 11 12 nan
nan 10 10 10 10 10 10 10 10 10 10 11 12 14 13 13 13 13 12 12 13 13 14 15 14 14 14 15 15 16 15 13 12 12 11 10 8 7 9 9 9 10 11 10 10 11 11 10 10 11 11 10 10 10 10 10 9 8 6 5 8 11 15 14 13 12 11 11 11 11 7 7 8 9 10 10 10 10 11 9 7 6 8 11 10 nan
nan 11 11 10 10 10 10 10 10 11 12 13 13 12 11 10 10 9 9 10 11 12 11 12 12 11 11 12 14 16 16 15 14 13 10 11 11 9 8 8 9 9 10 10 11 11 11 9 10 11 12 13 13 14 13 12 13 14 12 8 8 9 12 13 13 14 13 11 11 14 11 8 9 11 11 11 11 11 12 10 7 5 6 10 10 nan
nan 11 11 10 10 10 9 10 12 13 14 13 11 10 10 9 8 7 8 10 9 9 9 10 10 9 9 10 13 15 17 18 17 15 14 13 13 11 9 9 8 8 9 10 10 11 12 11 10 11 12 11 11 10 9 11 12 14 15 13 10 7 8 12 13 15 15 13 12 13 14 11 11 12 12 11 11 11 12 13 12 11 9 10 10 nan
nan 11 11 11 11 11 12 12 12 12 11 10 9 10 10 10 9 9 11 10 9 9 11 11 11 11 11 12 12 12 13 16 18 18 17 14 10 8 9 11 10 9 8 9 9 9 10 12 12 11 11 10 9 8 9 9 9 11 14 16 14 11 9 11 13 13 14 14 13 13 13 12 11 10 10 11 10 10 11 12 13 15 15 13 11 nan
nan 11 11 11 11 11 10 10 10 10 10 9 10 10 11 10 10 11 10 10 10 12 12 12 12 13 13 12 11 10 10 12 14 16 18 18 17 15 13 13 12 12 11 10 9 8 8 10 10 11 10 11 10 9 9 9 9 10 14 18 17 15 11 10 12 13 13 13 12 12 12 12 10 8 8 9 9 10 10 10 10 11 12 12 12 nan
nan 10 11 11 10 9 9 10 10 10 9 10 11 11 11 10 11 11 10 11 12 13 12 12 12 11 9 9 10 10 10 10 10 11 14 18 20 21 18 15 12 11 11 11 11 10 8 8 8 8 9 11 12 12 12 11 11 12 17 20 18 15 10 8 10 12 12 11 10 10 11 10 9 8 8 8 9 10 12 12 11 9 9 10 10 nan
nan 10 10 10 9 9 10 10 11 11 10 11 11 11 11 11 10 10 12 12 11 10 10 11 11 10 8 9 9 9 8 8 9 9 10 12 14 15 16 16 15 12 11 10 11 10 9 9 8 7 8 9 11 13 15 15 15 15 17 18 17 14 10 7 8 10 11 11 12 11 10 8 9 9 9 9 10 11 13 13 13 12 10 9 9 nan
nan 10 10 9 9 10 10 11 11 10 10 11 11 12 12 10 8 9 12 11 10 10 11 12 10 9 10 10 10 8 8 9 10 10 10 11 12 13 14 15 16 16 15 13 13 13 13 12 10 8 7 7 8 9 12 15 16 16 16 15 14 12 10 9 10 11 12 12 13 12 9 8 9 10 10 9 9 9 10 11 13 14 13 11 10 nan
nan 10 9 9 9 10 10 10 10 9 9 10 11 13 13 10 9 12 13 11 11 12 12 10 10 10 11 11 11 10 10 12 13 12 12 12 12 12 13 14 14 15 16 17 17 17 18 18 16 13 8 6 5 6 9 13 15 15 15 14 13 11 10 11 11 11 11 12 12 11 9 10 12 13 11 9 8 7 8 10 12 13 14 13 12 nan
nan 9 9 10 10 10 10 10 10 9 10 10 11 13 13 12 12 12 11 11 11 11 10 10 10 10 11 11 11 10 11 13 13 12 12 12 11 10 11 13 13 13 14 16 16 16 17 19 22 22 18 10 6 5 9 12 13 13 12 11 11 12 11 11 12 12 11 11 11 10 9 9 11 13 12 10 9 8 9 10 11 12 12 13 13 nan
nan nan nan nan nan nan nan nan nan nan nan nan nan nan nan nan nan nan nan nan nan nan nan nan nan nan nan nan nan nan nan nan nan nan nan nan nan nan nan nan nan nan nan nan nan nan nan nan nan nan nan nan nan nan nan nan nan nan nan nan nan nan nan nan nan nan nan nan nan nan nan nan nan nan nan nan nan nan nan nan nan nan nan nan nan nan
CAPE
nan nan nan nan nan nan nan nan nan nan nan nan nan nan nan nan nan nan nan nan nan nan nan nan nan nan nan nan nan nan nan 0 2 2 6 11 15 15 21 27 27 31 42 45 45 50 55 55 55 60 66 74 83 83 100 108 108 118 123 129 129 129 134 140 140 151 169 204 264 264 299 337 381 381 449 474 461 461 428 382 382 358 337 318 318 297
nan nan nan nan nan nan nan nan nan nan nan nan nan nan nan nan nan nan nan nan nan nan nan nan nan nan nan nan nan nan nan 1 2 2 6 9 14 14 20 27 27 38 46 44 44 48 54 55 55 60 63 72 79 79 86 94 94 103 109 109 109 114 113 124 124 130 155 177 221 221 285 324 403 403 419 435 404 404 358 323 323 327 313 307 307 278
nan nan nan nan nan nan nan nan nan nan nan nan nan nan nan nan nan nan nan nan nan nan nan nan nan nan nan nan nan nan 0 2 3 3 6 9 16 16 23 34 34 43 46 50 50 51 53 55 55 62 70 72 73 73 80 83 83 87 92 92 92 97 102 108 108 120 143 162 195 195 253 296 368 368 376 370 336 336 308 289 289 291 310 321 321 301
nan nan nan nan nan nan nan nan nan nan nan nan nan nan nan nan nan nan nan nan nan nan nan nan nan nan nan nan nan nan 1 3 5 5 8 12 19 19 27 39 39 47 54 54 54 56 57 56 56 58 66 64 70 70 72 74 74 79 79 79 79 84 95 102 102 114 131 155 180 180 208 248 279 279 272 254 230 230 230 262 262 304 322 326 326 296
nan nan nan nan nan nan nan nan nan nan nan nan nan nan nan nan nan nan nan nan nan nan nan nan nan nan nan nan nan nan 0 4 8 8 11 17 25 25 35 47 47 52 58 54 54 50 53 49 49 51 52 54 53 53 55 60 60 60 65 65 65 70 79 90 90 108 120 137 157 157 175 196 207 207 212 207 205 205 211 251 251 290 300 291 291 271
nan nan nan nan nan nan nan nan nan nan nan nan nan nan nan nan nan nan nan nan nan nan nan nan nan nan nan nan nan nan 0 5 10 10 15 19 23 23 30 36 36 45 46 47 47 49 47 44 44 44 45 46 47 47 49 54 54 58 55 59 59 60 68 83 83 90 102 114 132 132 145 158 165 165 176 173 172 172 174 188 188 226 234 247 247 231
nan nan nan nan nan nan nan nan nan nan nan nan nan nan nan nan nan nan nan nan nan nan nan nan nan nan nan nan nan nan 1 3 8 8 10 13 18 18 21 24 24 32 37 39 39 42 42 41 41 41 43 43 48 48 51 51 51 61 56 61 61 66 67 78 78 84 94 102 114 114 120 132 142 142 156 154 147 147 146 151 151 180 189 182 182 188
nan nan nan nan nan nan nan nan nan nan nan nan nan nan nan nan nan nan nan nan nan nan nan nan nan nan nan nan nan nan nan nan nan nan nan nan 1 1 6 13 13 19 23 27 27 35 39 42 42 44 44 45 48 48 56 57 57 62 58 58 58 60 60 66 66 76 78 80 88 88 94 103 110 110 113 120 122 122 123 127 127 131 145 142 142 151
nan nan nan nan nan nan nan nan nan nan nan nan nan nan nan nan nan nan nan nan nan nan nan nan nan nan nan nan nan nan nan nan nan nan nan nan nan nan 0 13 13 18 22 24 24 28 34 35 35 40 38 39 40 40 41 45 45 45 42 44 44 40 44 50 50 54 56 65 68 68 75 83 91 91 93 100 102 102 104 100 100 99 104 115 115 124
nan nan nan nan nan nan nan nan nan nan nan nan nan nan nan nan nan nan nan nan nan nan nan nan nan nan nan nan nan nan nan nan 7 7 17 5 15 15 10 8 8 5 14 13 13 17 19 22 22 24 24 23 24 24 24 22 22 21 19 19 19 19 20 24 24 29 34 39 44 44 50 57 69 69 72 79 79 79 83 76 76 73 81 83 83 90
nan nan nan nan nan nan nan nan nan nan nan nan nan nan nan nan nan nan nan nan nan nan nan nan nan nan nan nan nan nan nan nan nan nan nan 0 4 4 6 3 3 3 3 3 3 3 2 2 2 2 2 3 3 3 3 3 3 4 5 6 6 9 10 13 13 16 20 24 24 24 33 38 45 45 56 59 60 60 65 60 60 61 63 62 62 71
nan nan nan nan nan nan nan nan nan nan nan nan nan nan nan nan nan nan nan nan nan nan nan nan nan nan nan nan nan nan nan nan nan nan nan nan nan nan nan nan nan nan nan nan nan nan nan nan nan nan nan nan nan nan nan nan nan 0 1 3 3 5 8 9 9 13 13 15 18 18 21 22 31 31 38 45 46 46 48 49 49 48 47 47 47 56
nan nan nan nan nan nan nan nan nan nan nan nan nan nan nan nan nan nan nan nan nan nan nan nan nan nan nan nan nan nan nan nan nan nan nan nan nan nan nan nan nan nan nan nan nan nan nan nan nan nan nan nan nan nan nan nan nan nan nan 0 0 2 3 6 6 8 13 16 16 16 16 18 21 21 25 28 31 31 33 30 30 30 33 36 36 44
nan nan nan nan nan nan nan nan nan nan nan nan nan nan nan nan nan nan nan nan nan nan nan nan nan nan nan nan nan nan nan nan nan nan nan nan nan nan nan nan nan nan nan nan nan nan nan nan nan nan nan nan nan nan nan nan nan nan nan nan nan 0 2 3 3 8 11 16 17 17 18 19 19 19 22 23 23 23 24 25 25 28 31 36 36 47
nan nan nan nan nan nan nan nan nan nan nan nan nan nan nan nan nan nan nan nan nan nan nan nan nan nan nan nan nan nan nan nan nan nan nan nan nan nan nan nan nan nan nan nan nan nan nan nan nan nan nan nan nan nan nan nan nan nan nan 0 0 1 3 5 5 8 12 17 18 18 19 22 23 23 23 23 22 22 24 24 24 29 33 41 41 58
nan nan nan nan nan nan nan nan nan nan nan nan nan nan nan nan nan nan nan 0 0 nan 0 nan nan nan nan nan nan nan nan nan nan nan nan nan nan nan nan nan nan nan nan nan nan nan nan nan nan nan nan nan nan nan nan nan nan nan 1 2 2 3 6 8 8 12 15 18 21 21 23 26 26 26 26 24 24 24 25 29 29 32 40 46 46 57
8 5 nan nan nan nan nan nan nan nan nan nan nan nan nan nan 0 0 1 1 1 0 1 0 0 nan nan nan nan nan nan nan nan nan nan nan nan nan nan nan nan nan nan nan nan nan nan nan nan nan nan nan nan nan nan nan nan 0 2 3 3 6 10 14 14 16 17 19 22 22 26 27 29 29 29 26 27 27 30 32 32 37 40 46 46 56
2 nan nan nan nan nan 1 nan nan nan nan nan nan nan nan nan 1 1 2 1 1 nan nan nan nan nan nan nan nan nan nan nan nan nan nan nan nan nan nan nan nan nan nan nan nan nan nan nan nan nan nan nan nan nan nan nan nan 1 4 6 6 9 13 16 16 19 22 24 26 26 25 27 30 30 31 32 31 31 35 34 34 36 40 45 45 52
nan 0 nan 3 3 3 1 nan nan nan nan nan nan nan nan nan nan nan 0 0 0 nan nan nan nan nan nan nan nan nan nan nan nan nan nan nan nan nan nan nan nan nan nan nan nan nan nan nan nan nan nan nan nan nan nan 0 0 1 3 6 6 8 13 18 18 22 23 26 26 26 27 29 31 31 32 33 34 34 34 35 35 36 38 39 39 46
nan nan 4 7 7 4 0 nan nan nan nan nan nan nan nan nan nan nan 1 nan nan nan nan nan nan nan nan nan nan nan nan nan nan nan nan nan nan nan nan nan nan nan nan nan nan nan nan nan nan nan nan nan nan nan nan nan nan 0 3 5 5 8 12 18 18 22 26 26 25 25 27 29 31 31 33 33 33 33 34 35 35 36 37 39 39 44
1 0 2 2 2 2 nan nan nan nan 2 0 nan nan nan nan 0 0 nan nan nan nan nan nan nan 1 4 1 nan nan nan nan nan nan nan nan nan nan nan nan nan nan nan nan nan nan nan nan nan nan nan nan nan nan nan nan nan 0 2 5 5 8 11 17 17 21 25 25 25 25 29 30 32 32 33 32 34 34 35 34 34 35 38 38 38 46
0 0 nan 0 0 2 2 nan 0 0 6 nan nan nan 0 0 nan nan 0 nan nan nan 8 16 16 17 19 14 0 0 nan nan nan nan nan nan nan nan nan nan nan nan nan nan nan nan nan nan nan nan nan nan nan nan nan nan nan nan 1 6 6 9 13 16 16 21 24 26 27 27 29 29 32 32 31 32 32 32 33 35 35 36 38 42 42 46
1 2 3 3 3 2 0 nan nan nan 4 1 4 4 1 1 1 1 7 12 12 8 15 14 14 14 15 10 0 0 nan nan nan nan nan nan nan nan nan nan nan nan nan nan nan nan nan nan nan nan nan nan nan nan nan nan nan nan 1 6 6 10 13 17 17 21 23 25 29 29 29 30 34 34 32 31 32 32 34 34 34 36 36 38 38 48
1 3 8 8 8 0 nan nan nan nan 1 3 2 2 nan nan nan nan 13 12 12 10 18 19 19 14 8 9 4 4 0 nan nan nan nan nan nan nan nan nan nan nan nan nan nan nan nan nan nan nan nan nan nan nan nan nan nan nan 1 5 5 10 14 17 17 20 23 28 29 29 31 33 33 33 33 30 32 32 34 34 34 34 35 38 38 44
nan 1 2 7 7 9 0 nan nan nan nan nan nan nan nan nan 5 5 nan nan nan 1 10 12 12 11 4 11 8 8 nan nan nan nan nan nan nan nan nan nan nan nan nan nan nan nan nan nan nan nan nan nan nan nan nan nan nan nan 1 4 4 8 13 16 16 20 22 24 27 27 29 31 32 32 30 30 31 31 31 30 30 33 31 34 34 36
17 14 17 59 59 146 159 126 143 143 84 3 nan nan nan nan nan nan nan nan nan nan 1 6 6 3 4 10 8 8 nan nan 0 0 1 3 nan nan nan nan nan nan nan nan nan nan nan nan nan nan nan nan nan nan nan nan nan nan 0 3 3 7 10 15 15 19 22 23 26 26 28 28 30 30 28 30 28 28 30 29 29 28 27 27 27 29
140 134 170 206 206 233 252 265 220 220 189 107 25 25 nan nan nan nan nan nan nan nan nan 0 0 nan nan 1 0 0 nan nan nan nan 2 6 8 8 nan nan nan nan nan nan nan nan nan nan nan nan nan nan nan nan nan nan nan nan 0 2 2 4 6 10 10 16 20 21 23 23 25 27 28 28 29 30 28 28 30 26 26 25 23 21 21 25
154 158 178 180 180 188 195 174 132 132 76 54 60 60 18 nan nan nan nan nan nan nan nan 0 0 nan nan nan 1 1 nan nan nan nan nan 5 5 5 nan nan nan nan nan nan nan nan nan nan nan nan nan nan nan nan nan nan nan nan nan 0 0 1 2 4 4 9 13 17 19 19 22 24 27 27 29 30 28 28 27 25 25 25 21 15 15 nan
107 125 137 140 140 127 89 38 9 9 3 8 16 16 3 nan nan nan nan nan nan nan 2 3 3 0 nan nan 1 1 nan nan nan nan nan 2 4 4 nan nan nan nan nan nan nan nan nan nan nan nan nan nan nan nan nan nan nan nan nan nan nan nan nan nan nan 2 6 11 17 17 20 26 28 28 29 28 27 27 24 23 23 23 14 4 4 nan
nan 60 45 40 40 21 nan nan nan nan 1 2 5 5 4 nan nan nan nan nan nan nan 8 8 8 4 1 0 nan nan nan nan nan nan nan 1 5 5 nan nan nan nan nan nan nan nan nan nan nan nan nan nan nan nan nan nan nan nan nan nan nan nan nan nan nan nan 0 4 8 8 17 24 29 29 30 30 27 27 23 19 19 20 7 nan nan nan
nan nan nan nan nan nan nan nan nan nan nan 2 3 3 nan nan nan nan nan nan nan nan 5 6 6 4 4 2 nan nan nan nan nan nan nan 1 4 4 nan nan nan nan nan nan nan nan nan nan nan nan nan nan nan nan nan nan nan nan nan nan nan nan nan nan nan nan nan nan 3 3 9 15 24 24 24 24 21 21 21 20 20 17 0 nan nan nan
nan nan nan nan nan nan nan nan nan nan nan nan nan nan nan nan nan nan nan nan nan nan nan 1 1 7 11 11 6 6 nan nan nan nan nan nan nan nan nan nan nan nan nan nan nan nan nan nan nan nan nan nan nan nan nan nan nan nan nan nan nan nan nan nan nan nan nan nan nan nan nan 2 6 6 7 11 13 13 17 18 18 13 nan nan nan nan
nan nan nan nan nan nan nan nan nan nan nan nan nan nan nan nan nan nan nan nan nan nan nan nan nan 6 8 6 6 6 2 nan nan nan 1 0 15 15 2 nan nan nan nan nan nan nan nan nan nan nan nan nan nan nan nan nan nan nan nan nan nan nan nan nan nan nan nan nan nan nan nan nan nan nan 1 4 4 4 8 8 8 12 nan nan nan nan
nan nan nan nan nan nan nan nan nan nan nan nan nan nan nan nan nan nan nan nan nan nan nan nan nan 1 5 6 6 6 4 nan 13 13 25 25 45 45 18 3 3 8 16 6 6 7 5 1 1 1 nan nan nan nan nan nan nan nan nan nan nan nan nan nan nan nan nan nan nan nan nan nan nan nan nan nan nan nan nan 1 1 5 12 nan nan nan
nan nan nan nan nan nan nan nan nan nan nan nan nan nan nan nan nan nan nan nan nan nan nan nan nan nan 6 11 13 13 10 1 25 25 57 27 15 15 4 nan nan nan nan 2 2 4 6 8 8 20 18 17 nan nan nan nan nan nan nan nan nan nan nan nan nan nan nan nan nan nan nan nan nan nan nan nan nan nan nan 0 0 7 13 21 21 7
nan nan nan nan nan nan nan nan nan nan nan nan nan nan nan nan nan nan nan nan nan nan nan nan nan nan nan 8 15 15 16 3 13 13 53 30 20 20 15 1 1 0 2 1 1 0 1 3 3 12 20 23 8 8 nan nan nan nan nan nan nan nan nan nan nan nan nan nan nan nan nan nan nan nan nan nan nan nan nan nan nan 4 6 10 10 8
nan nan nan nan nan nan nan nan nan nan nan nan nan nan nan nan nan nan nan nan nan nan nan nan nan nan nan nan 2 2 11 7 0 0 10 11 8 8 13 9 9 8 9 7 7 4 4 6 6 5 7 10 9 9 nan nan nan nan nan nan nan nan nan nan nan nan nan nan nan nan nan nan nan nan nan nan nan nan nan nan nan nan 0 1 1 1
nan nan nan nan nan nan nan nan nan nan nan nan nan nan nan nan nan nan nan nan nan nan nan nan nan nan 1 17 2 2 1 1 nan nan nan 0 2 2 8 8 8 9 13 13 13 9 9 10 10 7 5 3 10 10 9 nan nan nan nan nan nan nan nan nan nan nan nan nan nan nan nan nan nan nan nan nan nan nan nan nan nan nan nan nan nan nan
nan nan nan nan nan nan nan nan nan nan nan nan nan nan nan nan nan nan nan nan nan nan nan nan nan nan nan nan 8 8 15 7 1 1 nan nan 0 0 4 7 7 7 10 13 13 16 19 13 13 10 7 4 nan nan nan nan nan nan nan nan nan nan nan nan nan nan nan nan nan nan nan nan nan nan nan nan nan nan nan nan nan nan nan nan nan nan
nan nan nan 4 4 nan nan nan nan nan nan nan nan nan nan nan nan nan nan nan nan nan nan nan nan 0 1 5 2 2 2 nan nan nan nan nan nan nan 0 4 4 6 10 11 11 18 23 18 18 15 12 2 1 1 nan nan nan nan nan nan nan nan nan nan nan nan nan nan nan nan nan nan nan nan nan nan nan nan nan nan nan nan nan nan nan nan
0 1 nan nan nan nan nan nan nan nan nan nan nan nan nan nan 0 0 nan 1 1 nan nan nan nan 0 nan nan nan nan nan nan nan nan nan nan nan nan nan nan nan 2 7 10 10 14 20 17 17 16 11 1 1 1 1 nan nan nan 4 nan nan nan nan nan nan nan nan nan nan nan nan nan nan nan nan nan nan nan nan nan nan nan nan nan nan nan
3 nan nan nan nan nan nan nan nan nan nan 0 nan nan nan 0 4 4 1 nan nan nan nan nan nan 0 nan nan nan nan nan nan nan nan nan nan nan nan nan nan nan nan 2 8 8 13 22 24 24 24 15 7 2 2 nan nan nan nan 10 nan nan nan nan nan nan nan nan nan nan nan nan nan nan nan nan nan nan nan nan nan nan nan nan nan nan nan
nan nan nan nan nan nan nan nan 2 2 5 4 4 4 nan nan nan nan nan nan nan nan nan nan nan 0 nan nan nan nan nan nan nan nan nan nan nan nan nan nan nan nan nan 5 5 11 9 21 21 19 17 12 8 8 8 7 7 nan 2 3 3 nan nan nan nan nan nan nan nan nan nan nan nan nan nan nan nan nan nan nan nan nan nan nan nan nan
nan nan nan nan nan nan nan 1 4 4 8 8 5 5 nan nan nan nan nan nan nan nan nan nan nan nan nan nan nan nan nan nan nan nan nan nan nan nan nan nan nan nan nan nan nan 2 2 6 6 7 7 6 4 4 4 2 2 nan nan nan nan nan nan nan nan nan nan nan nan nan nan nan nan nan nan nan nan nan nan nan nan nan nan nan nan nan
nan nan nan nan nan 1 1 4 5 5 4 1 nan nan nan nan nan nan nan nan nan nan nan nan nan nan nan nan nan nan nan nan nan nan nan nan nan nan nan nan nan nan nan nan nan nan 1 5 5 2 1 2 3 3 1 0 0 nan nan nan nan nan nan nan nan nan nan nan nan nan nan nan nan nan nan nan nan nan nan nan nan nan nan nan nan nan
nan nan nan nan nan 3 8 4 2 2 0 nan nan nan nan nan nan nan nan nan nan 0 nan nan nan nan nan 1 1 1 nan nan nan nan nan nan nan nan nan nan nan nan nan nan nan nan nan 3 3 3 3 3 2 2 0 nan nan nan nan nan nan nan nan nan nan nan nan nan nan nan nan nan nan nan nan nan nan nan nan nan nan nan nan nan nan nan
nan nan 1 2 2 4 1 2 1 1 0 nan nan nan nan nan nan nan nan nan nan 1 2 3 3 1 2 2 1 1 nan nan nan nan nan nan nan nan nan nan nan nan nan nan nan nan nan nan nan 3 4 3 0 0 nan nan nan nan nan nan nan nan nan nan nan nan nan nan nan nan nan nan nan nan nan nan nan nan nan nan nan nan nan nan nan nan
3 7 3 nan nan nan nan 0 nan nan nan nan nan nan nan nan 0 0 1 nan nan 6 10 3 3 2 1 0 nan nan nan nan nan nan nan nan nan nan nan nan nan nan nan nan nan nan nan nan nan nan 2 0 nan nan nan nan nan nan nan nan nan nan nan nan nan nan nan nan nan nan nan nan nan nan nan nan nan nan nan nan nan nan nan nan nan nan
5 2 nan nan nan 0 0 nan nan nan nan 3 3 3 nan 1 35 35 12 3 3 2 1 1 1 1 0 nan nan nan nan nan nan nan nan nan nan nan nan nan nan nan nan nan nan nan nan nan nan nan nan nan nan nan nan nan nan nan nan nan nan nan nan nan nan nan nan nan nan nan nan nan nan nan nan nan nan nan nan nan nan nan nan nan nan nan
nan nan nan 1 1 1 1 nan 1 1 2 4 8 8 nan nan nan nan 1 nan nan 0 0 0 0 0 nan nan nan nan nan nan nan nan nan nan nan nan nan nan nan nan nan nan nan nan nan nan nan nan 4 2 nan nan nan nan nan nan nan nan nan nan nan nan nan nan nan nan nan nan nan nan nan nan nan nan nan nan nan nan nan nan nan nan nan nan
1 nan nan 1 1 3 1 0 1 1 1 3 8 8 4 nan nan nan nan nan nan 0 0 1 1 1 1 nan nan nan 2 2 1 1 0 nan nan nan nan nan nan nan nan nan nan nan nan nan nan nan nan 33 7 7 nan nan nan nan nan nan nan nan nan nan nan nan nan nan nan nan nan nan nan nan nan nan nan nan nan nan nan nan nan nan nan nan